User: anonymous
Location: Prairie State College
(41.5244°N, 87.6382°W)
Time: 22:04:48
(UTC-05:00)
Language:

ARGOS Delta rocket - Orbit

View from above orbital plane
View from above orbital plane
View from above satellite
View from above satellite

Ground track
Ground track

The orbit data is extracted from the following two-line orbital elements,

1 25637U 99008D   14237.45696851  .00000199  00000-0  57771-4 0  5604
2 25637 096.4791 003.0494 0142266 306.8013 092.1643 14.45924053817203
Epoch (UTC): 25 August 2014 10:58:02
Eccentricity: 0.0142266
inclination: 96.4791°
perigee height: 638 km
apogee height: 840 km
right ascension of ascending node: 3.0494°
argument of perigee: 306.8013°
revolutions per day: 14.45924053
mean anomaly at epoch: 92.1643°
orbit number at epoch: 81720

The dashed part of the orbit path shows where the satellite is in the earth's shadow,  

DLR